This demonstration page uses our WeatherBlox Daily Observations layout. Learn more.

Left ArrowRight Arrow

Hourly Observations for September 21, 2020

Temp ( °F °C ) Dew Point ( °F °C ) Humidity (%) Winds ( mph kmh ) Pressure ( in mb ) Visibility ( mi km ) Precip ( " mm )
12:51 am 00:51 Clear 70 21.1 36 2.2 29 29 E 8 13 29.86 1011 10 16.0934 0 0
1:51 am 01:51 Clear 69 20.6 36 2.2 30 30 SSE 8 13 29.86 1011 10 16.0934 0 0
2:51 am 02:51 Clear 67 19.4 34 1.1 30 30 ESE 8 13 29.86 1011 10 16.0934 0 0
3:51 am 03:51 Clear 69 20.6 35 1.7 29 29 ESE 6 9 29.86 1011 10 16.0934 0 0
4:51 am 04:51 Clear 71 21.7 36 2.2 28 28 ESE 8 13 29.87 1012 10 16.0934 0 0
5:51 am 05:51 Clear 71 21.7 35 1.7 27 27 SE 9 15 29.9 1013 10 16.0934 0 0
6:51 am 06:51 Sunny 72 22.2 35 1.7 26 26 SE 12 19 29.93 1013 10 16.0934 0 0
7:51 am 07:51 Sunny 73 22.8 39 3.9 29 29 SSE 10 17 29.94 1014 10 16.0934 0 0
8:51 am 08:51 Sunny 80 26.7 38 3.3 22 22 SE 13 20 29.95 1014 10 16.0934 0 0
9:51 am 09:51 Sunny 86 30 43 6.1 22 22 SE 10 17 29.94 1014 10 16.0934 0 0
10:51 am 10:51 Sunny 89 31.7 43 6.1 20 20 SE 7 11 29.92 1013 10 16.0934 0 0
11:51 am 11:51 Sunny 92 33.3 45 7.2 20 20 S 10 17 29.9 1013 10 16.0934 0 0
12:51 pm 12:51 Sunny 93 33.9 43 6.1 18 18 SSE 8 13 29.87 1011 10 16.0934 0 0
1:51 pm 13:51 Sunny 94 34.4 41 5 16 16 Calm 29.83 1010 10 16.0934 0 0
2:51 pm 14:51 Sunny 96 35.6 40 4.4 14 14 VRB 6 9 29.8 1009 10 16.0934 0 0
3:51 pm 15:51 Sunny 96 35.6 40 4.4 14 14 SSW 6 9 29.79 1009 10 16.0934 0 0
4:51 pm 16:51 Sunny 96 35.6 38 3.3 13 13 S 10 17 29.78 1008 10 16.0934 0 0
5:51 pm 17:51 Sunny 93 33.9 37 2.8 14 14 SW 5 7 29.79 1009 10 16.0934 0 0
6:51 pm 18:51 Clear 86 30 35 1.7 16 16 E 13 20 29.82 1010 10 16.0934 0 0
7:51 pm 19:51 Clear 87 30.6 42 5.6 21 21 E 12 19 29.84 1010 10 16.0934 0 0
8:51 pm 20:51 Clear 85 29.4 41 5 21 21 E 7 11 29.84 1011 10 16.0934 0 0
9:51 pm 21:51 Clear 80 26.7 42 5.6 26 26 SW 3 6 29.85 1011 10 16.0934 0 0
10:51 pm 22:51 Clear 73 22.8 40 4.4 30 30 E 6 9 29.87 1012 10 16.0934 0 0
11:51 pm 23:51 Clear 74 23.3 40 4.4 29 29 E 6 9 29.87 1012 10 16.0934 0 0

Powered by AerisWeather